START_TIME,STEP,MOV.,M35,t_acc.,PL05,t_acc.,PL06,t_acc.,PL07,t_acc.
1979-07-03 18:00:24.750 ,0,1,0.,4.8,1.,4.8,3.,4.8,1.,4.8
1979-07-03 18:00:29.550 ,0,1,0.,4.8,4.,4.8,2.,4.8,0.,4.8
1979-07-03 18:00:34.350 ,0,1,0.,4.8,2.,4.8,1.,4.8,2.,4.8
1979-07-03 18:00:39.150 ,0,1,0.,4.8,2.,4.8,0.,4.8,0.,4.8
1979-07-03 18:00:43.950 ,0,1,0.,4.8,2.,4.8,1.,4.8,0.,4.8
1979-07-03 18:00:48.750 ,4,1,0.,4.8,2.,4.8,1.,4.8,2.,4.8
1979-07-03 18:00:53.550 ,4,1,0.,4.8,3.,4.8,0.,4.8,0.,4.8
1979-07-03 18:00:58.350 ,4,1,0.,4.8,1.,4.8,1.,4.8,1.,4.8
1979-07-03 18:01:03.150 ,4,1,0.,4.8,3.,4.8,0.,4.8,1.,4.8
1979-07-03 18:01:07.950 ,4,1,0.,4.8,6.,4.8,0.,4.8,1.,4.8
1979-07-03 18:01:12.750 ,7,1,0.,4.8,3.,4.8,1.,4.8,1.,4.8
1979-07-03 18:01:17.550 ,7,1,0.,4.8,4.,4.8,1.,4.8,0.,4.8
1979-07-03 18:01:22.350 ,7,1,0.,4.8,2.,4.8,1.,4.8,0.,4.8
1979-07-03 18:01:27.150 ,7,1,0.,4.8,0.,4.8,0.,4.8,0.,4.8
1979-07-03 18:01:31.950 ,7,1,0.,4.8,0.,4.8,0.,4.8,0.,4.8
1979-07-03 18:01:36.750 ,3,1,0.,4.8,2.,4.8,0.,4.8,0.,4.8
1979-07-03 18:01:41.550 ,3,1,0.,4.8,5.,4.8,0.,4.8,1.,4.8
1979-07-03 18:01:46.350 ,3,1,0.,4.8,4.,4.8,0.,4.8,0.,4.8
1979-07-03 18:01:51.150 ,3,1,0.,4.8,1.,4.8,1.,4.8,1.,4.8
1979-07-03 18:01:55.950 ,3,1,0.,4.8,7.,4.8,1.,4.8,1.,4.8
1979-07-03 18:02:00.750 ,0,1,0.,4.8,3.,4.8,2.,4.8,1.,4.8
1979-07-03 18:02:05.550 ,0,1,0.,4.8,4.,4.8,0.,4.8,0.,4.8
1979-07-03 18:02:10.350 ,0,1,0.,4.8,4.,4.8,0.,4.8,0.,4.8
1979-07-03 18:02:15.150 ,0,1,0.,4.8,4.,4.8,1.,4.8,2.,4.8
1979-07-03 18:02:19.950 ,0,1,0.,4.8,5.,4.8,1.,4.8,1.,4.8
1979-07-03 18:02:24.750 ,4,1,0.,4.8,5.,4.8,1.,4.8,1.,4.8
1979-07-03 18:02:29.550 ,4,1,0.,4.8,2.,4.8,1.,4.8,1.,4.8
1979-07-03 18:02:34.350 ,4,1,0.,4.8,1.,4.8,1.,4.8,0.,4.8
1979-07-03 18:02:39.150 ,4,1,0.,4.8,2.,4.8,5.,4.8,0.,4.8
1979-07-03 18:02:43.950 ,4,1,0.,4.8,5.,4.8,1.,4.8,2.,4.8
1979-07-03 18:02:48.750 ,7,1,0.,4.8,5.,4.8,1.,4.8,0.,4.8
1979-07-03 18:02:53.550 ,7,1,0.,4.8,6.,4.8,0.,4.8,0.,4.8
1979-07-03 18:02:58.350 ,7,1,1.,4.8,4.,4.8,2.,4.8,0.,4.8
1979-07-03 18:03:03.150 ,7,1,0.,4.8,2.,4.8,1.,4.8,1.,4.8
1979-07-03 18:03:07.950 ,7,1,0.,4.8,1.,4.8,0.,4.8,1.,4.8
1979-07-03 18:03:12.750 ,3,1,0.,4.8,1.,4.8,1.,4.8,0.,4.8
1979-07-03 18:03:17.550 ,3,1,0.,4.8,0.,4.8,1.,4.8,2.,4.8
1979-07-03 18:03:22.350 ,3,1,0.,4.8,6.,4.8,0.,4.8,0.,4.8
1979-07-03 18:03:27.150 ,3,1,0.,4.8,5.,4.8,3.,4.8,0.,4.8
1979-07-03 18:03:31.950 ,3,1,1.,4.8,4.,4.8,2.,4.8,1.,4.8
1979-07-03 18:03:36.750 ,0,1,0.,4.8,6.,4.8,1.,4.8,0.,4.8
1979-07-03 18:03:41.550 ,0,1,0.,4.8,6.,4.8,0.,4.8,0.,4.8
1979-07-03 18:03:46.350 ,0,1,0.,4.8,1.,4.8,2.,4.8,1.,4.8
1979-07-03 18:03:51.150 ,0,1,0.,4.8,3.,4.8,0.,4.8,0.,4.8
1979-07-03 18:03:55.950 ,0,1,0.,4.8,3.,4.8,0.,4.8,0.,4.8
1979-07-03 18:04:00.750 ,4,1,0.,4.8,3.,4.8,2.,4.8,1.,4.8
1979-07-03 18:04:05.550 ,4,1,0.,4.8,2.,4.8,0.,4.8,1.,4.8
1979-07-03 18:04:10.350 ,4,1,0.,4.8,4.,4.8,2.,4.8,0.,4.8
1979-07-03 18:04:15.150 ,4,1,0.,4.8,7.,4.8,0.,4.8,0.,4.8
1979-07-03 18:04:19.950 ,4,1,0.,4.8,3.,4.8,1.,4.8,1.,4.8
1979-07-03 18:04:24.750 ,7,1,0.,4.8,3.,4.8,1.,4.8,1.,4.8
1979-07-03 18:04:29.550 ,7,1,0.,4.8,1.,4.8,0.,4.8,0.,4.8
1979-07-03 18:04:34.350 ,7,1,0.,4.8,8.,4.8,1.,4.8,1.,4.8
1979-07-03 18:04:39.150 ,7,1,0.,4.8,0.,4.8,0.,4.8,0.,4.8
1979-07-03 18:04:43.950 ,7,1,0.,4.8,0.,4.8,0.,4.8,0.,4.8
1979-07-03 18:04:48.750 ,3,1,0.,4.8,6.,4.8,0.,4.8,1.,4.8
1979-07-03 18:04:53.550 ,3,1,0.,4.8,3.,4.8,0.,4.8,2.,4.8
1979-07-03 18:04:58.350 ,3,1,0.,4.8,3.,4.8,2.,4.8,0.,4.8
1979-07-03 18:05:03.150 ,3,1,0.,4.8,3.,4.8,0.,4.8,0.,4.8
1979-07-03 18:05:07.950 ,3,1,0.,4.8,6.,4.8,2.,4.8,0.,4.8
1979-07-03 18:05:12.750 ,0,1,0.,4.8,0.,4.8,0.,4.8,0.,4.8
1979-07-03 18:05:17.550 ,0,1,0.,4.8,2.,4.8,0.,4.8,1.,4.8
1979-07-03 18:05:22.350 ,0,1,0.,4.8,1.,4.8,0.,4.8,0.,4.8
1979-07-03 18:05:27.150 ,0,1,0.,4.8,2.,4.8,0.,4.8,0.,4.8
1979-07-03 18:05:31.950 ,0,1,0.,4.8,1.,4.8,0.,4.8,0.,4.8
1979-07-03 18:05:36.750 ,0,0,0.,4.8,5.,4.8,1.,4.8,3.,4.8
1979-07-03 18:05:41.550 ,0,0,0.,4.8,1.,4.8,0.,4.8,1.,4.8
1979-07-03 18:05:46.350 ,0,0,0.,4.8,2.,4.8,1.,4.8,1.,4.8
1979-07-03 18:05:51.150 ,0,0,0.,4.8,5.,4.8,1.,4.8,0.,4.8
1979-07-03 18:05:55.950 ,0,0,0.,4.8,6.,4.8,0.,4.8,1.,4.8
1979-07-03 18:06:00.750 ,0,0,0.,4.8,2.,4.8,0.,4.8,1.,4.8
1979-07-03 18:06:05.550 ,0,0,0.,4.8,2.,4.8,1.,4.8,1.,4.8
1979-07-03 18:06:10.350 ,0,0,0.,4.8,3.,4.8,0.,4.8,0.,4.8
1979-07-03 18:06:15.150 ,0,0,0.,4.8,1.,4.8,1.,4.8,0.,4.8
1979-07-03 18:06:19.950 ,0,0,0.,4.8,2.,4.8,0.,4.8,0.,4.8
1979-07-03 18:06:24.750 ,5,0,0.,4.8,0.,4.8,0.,4.8,0.,4.8
1979-07-03 18:06:29.550 ,5,0,0.,4.8,3.,4.8,1.,4.8,0.,4.8
1979-07-03 18:06:34.350 ,5,0,0.,4.8,3.,4.8,2.,4.8,1.,4.8
1979-07-03 18:06:39.150 ,5,0,0.,4.8,4.,4.8,1.,4.8,0.,4.8
1979-07-03 18:06:43.950 ,5,0,1.,4.8,2.,4.8,1.,4.8,1.,4.8
1979-07-03 18:06:48.750 ,5,0,0.,4.8,1.,4.8,2.,4.8,0.,4.8
1979-07-03 18:06:53.550 ,5,0,0.,4.8,4.,4.8,0.,4.8,1.,4.8
1979-07-03 18:06:58.350 ,5,0,0.,4.8,3.,4.8,2.,4.8,0.,4.8
1979-07-03 18:07:03.150 ,5,0,0.,4.8,2.,4.8,0.,4.8,0.,4.8
1979-07-03 18:07:07.950 ,5,0,0.,4.8,1.,4.8,0.,4.8,1.,4.8
1979-07-03 18:07:12.750 ,4,0,0.,4.8,7.,4.8,1.,4.8,2.,4.8
1979-07-03 18:07:17.550 ,4,0,0.,4.8,2.,4.8,1.,4.8,3.,4.8
1979-07-03 18:07:22.350 ,4,0,0.,4.8,5.,4.8,0.,4.8,0.,4.8
1979-07-03 18:07:27.150 ,4,0,0.,4.8,6.,4.8,1.,4.8,0.,4.8
1979-07-03 18:07:31.950 ,4,0,0.,4.8,6.,4.8,1.,4.8,0.,4.8
1979-07-03 18:07:36.750 ,4,0,0.,4.8,3.,4.8,2.,4.8,2.,4.8
1979-07-03 18:07:41.550 ,4,0,0.,4.8,5.,4.8,0.,4.8,0.,4.8
1979-07-03 18:07:46.350 ,4,0,0.,4.8,4.,4.8,1.,4.8,1.,4.8
1979-07-03 18:07:51.150 ,4,0,1.,4.8,6.,4.8,1.,4.8,1.,4.8
1979-07-03 18:07:55.950 ,4,0,0.,4.8,5.,4.8,0.,4.8,0.,4.8
1979-07-03 18:08:00.750 ,3,0,0.,4.8,2.,4.8,4.,4.8,1.,4.8
1979-07-03 18:08:05.550 ,3,0,0.,4.8,5.,4.8,0.,4.8,0.,4.8
1979-07-03 18:08:10.350 ,3,0,0.,4.8,5.,4.8,1.,4.8,2.,4.8
1979-07-03 18:08:15.150 ,3,0,0.,4.8,5.,4.8,2.,4.8,1.,4.8
1979-07-03 18:08:19.950 ,3,0,0.,4.8,4.,4.8,2.,4.8,4.,4.8
1979-07-03 18:08:24.750 ,3,0,0.,4.8,5.,4.8,1.,4.8,0.,4.8
1979-07-03 18:08:29.550 ,3,0,0.,4.8,3.,4.8,0.,4.8,1.,4.8
1979-07-03 18:08:34.350 ,3,0,0.,4.8,4.,4.8,1.,4.8,0.,4.8
1979-07-03 18:08:39.150 ,3,0,0.,4.8,5.,4.8,0.,4.8,0.,4.8
1979-07-03 18:08:43.950 ,3,0,0.,4.8,7.,4.8,1.,4.8,0.,4.8
1979-07-03 18:08:48.750 ,2,0,0.,4.8,4.,4.8,2.,4.8,0.,4.8
1979-07-03 18:08:53.550 ,2,0,0.,4.8,4.,4.8,1.,4.8,0.,4.8
1979-07-03 18:08:58.350 ,2,0,0.,4.8,5.,4.8,1.,4.8,0.,4.8
1979-07-03 18:09:03.150 ,2,0,0.,4.8,4.,4.8,2.,4.8,0.,4.8
1979-07-03 18:09:07.950 ,2,0,0.,4.8,3.,4.8,0.,4.8,1.,4.8
1979-07-03 18:09:12.750 ,2,0,0.,4.8,3.,4.8,1.,4.8,0.,4.8
1979-07-03 18:09:17.550 ,2,0,0.,4.8,0.,4.8,2.,4.8,0.,4.8
1979-07-03 18:09:22.350 ,2,0,0.,4.8,4.,4.8,1.,4.8,0.,4.8
1979-07-03 18:09:27.150 ,2,0,0.,4.8,1.,4.8,0.,4.8,0.,4.8
1979-07-03 18:09:31.950 ,2,0,0.,4.8,3.,4.8,0.,4.8,1.,4.8
1979-07-03 18:09:36.750 ,1,0,0.,4.8,2.,4.8,2.,4.8,1.,4.8
1979-07-03 18:09:41.550 ,1,0,0.,4.8,3.,4.8,1.,4.8,1.,4.8
1979-07-03 18:09:46.350 ,1,0,0.,4.8,6.,4.8,1.,4.8,0.,4.8
1979-07-03 18:09:51.150 ,1,0,0.,4.8,3.,4.8,1.,4.8,0.,4.8
1979-07-03 18:09:55.950 ,1,0,0.,4.8,5.,4.8,1.,4.8,2.,4.8
1979-07-03 18:10:00.750 ,1,0,0.,4.8,2.,4.8,0.,4.8,1.,4.8
1979-07-03 18:10:05.550 ,1,0,0.,4.8,0.,4.8,0.,4.8,0.,4.8
1979-07-03 18:10:10.350 ,1,0,0.,4.8,2.,4.8,1.,4.8,0.,4.8
1979-07-03 18:10:15.150 ,1,0,0.,4.8,2.,4.8,1.,4.8,0.,4.8
1979-07-03 18:10:19.950 ,1,0,0.,4.8,5.,4.8,0.,4.8,2.,4.8
1979-07-03 18:10:24.750 ,0,0,0.,4.8,2.,4.8,0.,4.8,1.,4.8
1979-07-03 18:10:29.550 ,0,0,0.,4.8,3.,4.8,1.,4.8,0.,4.8
1979-07-03 18:10:34.350 ,0,0,0.,4.8,3.,4.8,0.,4.8,0.,4.8
1979-07-03 18:10:39.150 ,0,0,0.,4.8,6.,4.8,0.,4.8,0.,4.8
1979-07-03 18:10:43.950 ,0,0,0.,4.8,0.,4.8,0.,4.8,1.,4.8
1979-07-03 18:10:48.750 ,0,0,0.,4.8,2.,4.8,0.,4.8,0.,4.8
1979-07-03 18:10:53.550 ,0,0,0.,4.8,3.,4.8,0.,4.8,0.,4.8
1979-07-03 18:10:58.350 ,0,0,0.,4.8,2.,4.8,0.,4.8,0.,4.8
1979-07-03 18:11:03.150 ,0,0,0.,4.8,3.,4.8,2.,4.8,0.,4.8
1979-07-03 18:11:07.950 ,0,0,0.,4.8,2.,4.8,1.,4.8,1.,4.8
1979-07-03 18:17:24.750 ,0,0,,0,,0,,0,,0
1979-07-03 18:17:29.550 ,0,0,,0,,0,,0,,0
1979-07-03 18:17:34.350 ,0,0,,0,,0,,0,,0
1979-07-03 18:17:39.150 ,0,0,0.,4.8,0.,4.8,0.,4.8,0.,4.8
1979-07-03 18:17:43.950 ,0,0,0.,4.8,3.,4.8,1.,4.8,0.,4.8
1979-07-03 18:17:36.750 ,7,0,0.,4.8,0.,4.8,0.,4.8,0.,4.8
1979-07-03 18:17:41.550 ,7,0,0.,4.8,0.,4.8,1.,4.8,1.,4.8
1979-07-03 18:17:46.350 ,7,0,0.,4.8,2.,4.8,0.,4.8,0.,4.8
1979-07-03 18:17:51.150 ,7,0,0.,4.8,0.,4.8,0.,4.8,1.,4.8
1979-07-03 18:17:55.950 ,7,0,0.,4.8,0.,4.8,0.,4.8,0.,4.8
1979-07-03 18:18:00.750 ,7,0,0.,4.8,0.,4.8,0.,4.8,0.,4.8
1979-07-03 18:18:05.550 ,7,0,0.,4.8,0.,4.8,1.,4.8,0.,4.8
1979-07-03 18:18:10.350 ,7,0,0.,4.8,0.,4.8,0.,4.8,1.,4.8
1979-07-03 18:18:15.150 ,7,0,0.,4.8,1.,4.8,0.,4.8,0.,4.8
1979-07-03 18:18:19.950 ,7,0,0.,4.8,2.,4.8,0.,4.8,0.,4.8
1979-07-03 18:18:24.750 ,6,0,0.,4.8,1.,4.8,0.,4.8,0.,4.8
1979-07-03 18:18:29.550 ,6,0,0.,4.8,0.,4.8,0.,4.8,0.,4.8
1979-07-03 18:18:34.350 ,6,0,0.,4.8,2.,4.8,0.,4.8,1.,4.8
1979-07-03 18:18:39.150 ,6,0,0.,4.8,2.,4.8,0.,4.8,1.,4.8
1979-07-03 18:18:43.950 ,6,0,0.,4.8,2.,4.8,0.,4.8,0.,4.8
1979-07-03 18:18:48.750 ,6,0,0.,4.8,2.,4.8,1.,4.8,0.,4.8
1979-07-03 18:18:53.550 ,6,0,0.,4.8,2.,4.8,1.,4.8,0.,4.8
1979-07-03 18:18:58.350 ,6,0,0.,4.8,3.,4.8,1.,4.8,0.,4.8
1979-07-03 18:19:03.150 ,6,0,0.,4.8,3.,4.8,0.,4.8,0.,4.8
1979-07-03 18:19:07.950 ,6,0,0.,4.8,2.,4.8,1.,4.8,0.,4.8
1979-07-03 18:19:12.750 ,5,0,0.,4.8,5.,4.8,0.,4.8,0.,4.8
1979-07-03 18:19:17.550 ,5,0,0.,4.8,3.,4.8,0.,4.8,0.,4.8
1979-07-03 18:19:22.350 ,5,0,0.,4.8,1.,4.8,1.,4.8,0.,4.8
1979-07-03 18:19:27.150 ,5,0,0.,4.8,0.,4.8,0.,4.8,0.,4.8
1979-07-03 18:19:31.950 ,5,0,0.,4.8,1.,4.8,0.,4.8,1.,4.8
1979-07-03 18:19:36.750 ,5,0,0.,4.8,1.,4.8,0.,4.8,0.,4.8
1979-07-03 18:19:41.550 ,5,0,0.,4.8,2.,4.8,1.,4.8,1.,4.8
1979-07-03 18:19:46.350 ,5,0,0.,4.8,2.,4.8,0.,4.8,0.,4.8
1979-07-03 18:19:51.150 ,5,0,0.,4.8,2.,4.8,0.,4.8,0.,4.8
1979-07-03 18:19:55.950 ,5,0,0.,4.8,3.,4.8,0.,4.8,1.,4.8
1979-07-03 18:20:00.750 ,4,0,0.,4.8,2.,4.8,0.,4.8,1.,4.8
1979-07-03 18:20:05.550 ,4,0,0.,4.8,4.,4.8,2.,4.8,0.,4.8
1979-07-03 18:20:10.350 ,4,0,0.,4.8,2.,4.8,3.,4.8,0.,4.8
1979-07-03 18:20:15.150 ,4,0,0.,4.8,5.,4.8,0.,4.8,0.,4.8
1979-07-03 18:20:19.950 ,4,0,0.,4.8,1.,4.8,1.,4.8,0.,4.8
1979-07-03 18:20:24.750 ,4,0,0.,4.8,3.,4.8,1.,4.8,1.,4.8
1979-07-03 18:20:29.550 ,4,0,0.,4.8,2.,4.8,2.,4.8,1.,4.8
1979-07-03 18:20:34.350 ,4,0,0.,4.8,2.,4.8,1.,4.8,1.,4.8
1979-07-03 18:20:39.150 ,4,0,0.,4.8,1.,4.8,1.,4.8,0.,4.8
1979-07-03 18:20:43.950 ,4,0,0.,4.8,1.,4.8,2.,4.8,0.,4.8
1979-07-03 18:20:48.750 ,3,0,0.,4.8,5.,4.8,1.,4.8,0.,4.8
1979-07-03 18:20:53.550 ,3,0,1.,4.8,3.,4.8,1.,4.8,1.,4.8
1979-07-03 18:20:58.350 ,3,0,0.,4.8,5.,4.8,2.,4.8,1.,4.8
1979-07-03 18:21:03.150 ,3,0,0.,4.8,2.,4.8,1.,4.8,0.,4.8
1979-07-03 18:21:07.950 ,3,0,0.,4.8,3.,4.8,0.,4.8,1.,4.8
1979-07-03 18:21:12.750 ,3,0,0.,4.8,5.,4.8,1.,4.8,1.,4.8
1979-07-03 18:21:17.550 ,3,0,0.,4.8,3.,4.8,0.,4.8,0.,4.8
1979-07-03 18:21:22.350 ,3,0,0.,4.8,3.,4.8,2.,4.8,2.,4.8
1979-07-03 18:21:27.150 ,3,0,0.,4.8,1.,4.8,0.,4.8,0.,4.8
1979-07-03 18:21:31.950 ,3,0,1.,4.8,5.,4.8,1.,4.8,0.,4.8
1979-07-03 18:21:36.750 ,2,0,0.,4.8,4.,4.8,1.,4.8,0.,4.8
1979-07-03 18:21:41.550 ,2,0,0.,4.8,5.,4.8,3.,4.8,0.,4.8
1979-07-03 18:21:46.350 ,2,0,0.,4.8,2.,4.8,0.,4.8,1.,4.8
1979-07-03 18:21:51.150 ,2,0,0.,4.8,1.,4.8,0.,4.8,0.,4.8
1979-07-03 18:21:55.950 ,2,0,0.,4.8,4.,4.8,1.,4.8,1.,4.8
1979-07-03 18:22:00.750 ,2,0,0.,4.8,2.,4.8,0.,4.8,0.,4.8
1979-07-03 18:22:05.550 ,2,0,0.,4.8,5.,4.8,1.,4.8,1.,4.8
1979-07-03 18:22:10.350 ,2,0,0.,4.8,1.,4.8,1.,4.8,1.,4.8
1979-07-03 18:22:15.150 ,2,0,0.,4.8,1.,4.8,1.,4.8,0.,4.8
1979-07-03 18:22:19.950 ,2,0,0.,4.8,5.,4.8,2.,4.8,0.,4.8
1979-07-03 18:22:24.750 ,1,0,0.,4.8,8.,4.8,1.,4.8,1.,4.8
1979-07-03 18:22:29.550 ,1,0,0.,4.8,3.,4.8,1.,4.8,0.,4.8
1979-07-03 18:22:34.350 ,1,0,0.,4.8,1.,4.8,0.,4.8,0.,4.8
1979-07-03 18:22:39.150 ,1,0,0.,4.8,3.,4.8,0.,4.8,1.,4.8
1979-07-03 18:22:43.950 ,1,0,0.,4.8,6.,4.8,1.,4.8,1.,4.8
1979-07-03 18:22:48.750 ,1,0,0.,4.8,4.,4.8,1.,4.8,0.,4.8
1979-07-03 18:22:53.550 ,1,0,0.,4.8,2.,4.8,2.,4.8,1.,4.8
1979-07-03 18:22:58.350 ,1,0,0.,4.8,8.,4.8,1.,4.8,0.,4.8
1979-07-03 18:23:03.150 ,1,0,0.,4.8,3.,4.8,4.,4.8,0.,4.8
1979-07-03 18:23:07.950 ,1,0,0.,4.8,4.,4.8,0.,4.8,0.,4.8
1979-07-03 18:23:12.750 ,0,0,0.,4.8,4.,4.8,0.,4.8,0.,4.8
1979-07-03 18:23:17.550 ,0,0,0.,4.8,2.,4.8,0.,4.8,1.,4.8
1979-07-03 18:23:22.350 ,0,0,0.,4.8,4.,4.8,0.,4.8,1.,4.8
1979-07-03 18:23:27.150 ,0,0,0.,4.8,2.,4.8,2.,4.8,1.,4.8
1979-07-03 18:23:31.950 ,0,0,0.,4.8,3.,4.8,1.,4.8,0.,4.8
1979-07-03 18:23:36.750 ,0,0,0.,4.8,2.,4.8,1.,4.8,0.,4.8
1979-07-03 18:23:41.550 ,0,0,0.,4.8,1.,4.8,0.,4.8,1.,4.8
1979-07-03 18:23:46.350 ,0,0,0.,4.8,1.,4.8,0.,4.8,0.,4.8
1979-07-03 18:23:51.150 ,0,0,0.,4.8,4.,4.8,0.,4.8,1.,4.8
1979-07-03 18:23:55.950 ,0,0,0.,4.8,4.,4.8,2.,4.8,2.,4.8
1979-07-03 18:24:00.750 ,0,0,0.,4.8,3.,4.8,1.,4.8,1.,4.8
1979-07-03 18:24:05.550 ,0,0,0.,4.8,3.,4.8,0.,4.8,0.,4.8
1979-07-03 18:24:10.350 ,0,0,0.,4.8,6.,4.8,0.,4.8,0.,4.8
1979-07-03 18:24:15.150 ,0,0,0.,4.8,3.,4.8,2.,4.8,0.,4.8
1979-07-03 18:24:19.950 ,0,0,0.,4.8,5.,4.8,1.,4.8,0.,4.8
1979-07-03 18:24:24.750 ,0,0,0.,4.8,1.,4.8,0.,4.8,0.,4.8
1979-07-03 18:24:29.550 ,0,0,0.,4.8,3.,4.8,1.,4.8,1.,4.8
1979-07-03 18:24:34.350 ,0,0,0.,4.8,3.,4.8,1.,4.8,1.,4.8
1979-07-03 18:24:39.150 ,0,0,0.,4.8,3.,4.8,1.,4.8,1.,4.8
1979-07-03 18:24:43.950 ,0,0,0.,4.8,3.,4.8,1.,4.8,0.,4.8
1979-07-03 18:24:48.750 ,1,0,0.,4.8,5.,4.8,1.,4.8,2.,4.8
1979-07-03 18:24:53.550 ,1,0,0.,4.8,3.,4.8,1.,4.8,1.,4.8
1979-07-03 18:24:58.350 ,1,0,0.,4.8,1.,4.8,3.,4.8,1.,4.8
1979-07-03 18:25:03.150 ,1,0,0.,4.8,4.,4.8,3.,4.8,0.,4.8
1979-07-03 18:25:07.950 ,1,0,0.,4.8,6.,4.8,1.,4.8,0.,4.8
1979-07-03 18:25:12.750 ,1,0,0.,4.8,3.,4.8,1.,4.8,1.,4.8
1979-07-03 18:25:17.550 ,1,0,0.,4.8,5.,4.8,0.,4.8,2.,4.8
1979-07-03 18:25:22.350 ,1,0,0.,4.8,7.,4.8,1.,4.8,3.,4.8
1979-07-03 18:25:27.150 ,1,0,0.,4.8,3.,4.8,0.,4.8,0.,4.8
1979-07-03 18:25:31.950 ,1,0,0.,4.8,3.,4.8,0.,4.8,0.,4.8
1979-07-03 18:25:36.750 ,2,0,0.,4.8,4.,4.8,2.,4.8,1.,4.8
1979-07-03 18:25:41.550 ,2,0,0.,4.8,3.,4.8,0.,4.8,1.,4.8
1979-07-03 18:25:46.350 ,2,0,0.,4.8,5.,4.8,0.,4.8,0.,4.8
1979-07-03 18:25:51.150 ,2,0,0.,4.8,9.,4.8,0.,4.8,0.,4.8
1979-07-03 18:25:55.950 ,2,0,0.,4.8,4.,4.8,0.,4.8,1.,4.8
1979-07-03 18:26:00.750 ,2,0,0.,4.8,2.,4.8,2.,4.8,0.,4.8
1979-07-03 18:26:05.550 ,2,0,0.,4.8,4.,4.8,0.,4.8,1.,4.8
1979-07-03 18:26:10.350 ,2,0,0.,4.8,7.,4.8,1.,4.8,1.,4.8
1979-07-03 18:26:15.150 ,2,0,0.,4.8,0.,4.8,1.,4.8,0.,4.8
1979-07-03 18:26:19.950 ,2,0,0.,4.8,5.,4.8,0.,4.8,0.,4.8
1979-07-03 18:26:24.750 ,3,0,0.,4.8,3.,4.8,0.,4.8,0.,4.8
1979-07-03 18:26:29.550 ,3,0,0.,4.8,4.,4.8,0.,4.8,0.,4.8
1979-07-03 18:26:34.350 ,3,0,0.,4.8,2.,4.8,0.,4.8,0.,4.8
1979-07-03 18:26:39.150 ,3,0,0.,4.8,3.,4.8,1.,4.8,0.,4.8
1979-07-03 18:26:43.950 ,3,0,0.,4.8,5.,4.8,0.,4.8,0.,4.8
1979-07-03 18:26:48.750 ,3,0,0.,4.8,6.,4.8,0.,4.8,1.,4.8
1979-07-03 18:26:53.550 ,3,0,0.,4.8,5.,4.8,0.,4.8,0.,4.8
1979-07-03 18:26:58.350 ,3,0,0.,4.8,5.,4.8,0.,4.8,2.,4.8
1979-07-03 18:27:03.150 ,3,0,0.,4.8,6.,4.8,1.,4.8,1.,4.8
1979-07-03 18:27:07.950 ,3,0,0.,4.8,6.,4.8,0.,4.8,2.,4.8
1979-07-03 18:27:12.750 ,4,0,0.,4.8,6.,4.8,1.,4.8,0.,4.8
1979-07-03 18:27:17.550 ,4,0,0.,4.8,1.,4.8,0.,4.8,0.,4.8
1979-07-03 18:27:22.350 ,4,0,0.,4.8,1.,4.8,2.,4.8,0.,4.8
1979-07-03 18:27:27.150 ,4,0,0.,4.8,0.,4.8,1.,4.8,0.,4.8
1979-07-03 18:27:31.950 ,4,0,1.,4.8,2.,4.8,1.,4.8,4.,4.8
1979-07-03 18:27:36.750 ,4,0,1.,4.8,5.,4.8,0.,4.8,1.,4.8
1979-07-03 18:27:41.550 ,4,0,0.,4.8,7.,4.8,3.,4.8,0.,4.8
1979-07-03 18:27:46.350 ,4,0,0.,4.8,4.,4.8,1.,4.8,1.,4.8
1979-07-03 18:27:51.150 ,4,0,0.,4.8,0.,4.8,2.,4.8,3.,4.8
1979-07-03 18:27:55.950 ,4,0,1.,4.8,3.,4.8,0.,4.8,2.,4.8
1979-07-03 18:28:00.750 ,5,0,0.,4.8,1.,4.8,1.,4.8,2.,4.8
1979-07-03 18:28:05.550 ,5,0,0.,4.8,4.,4.8,1.,4.8,0.,4.8
1979-07-03 18:28:10.350 ,5,0,0.,4.8,2.,4.8,0.,4.8,1.,4.8
1979-07-03 18:28:15.150 ,5,0,1.,4.8,1.,4.8,0.,4.8,1.,4.8
1979-07-03 18:28:19.950 ,5,0,0.,4.8,1.,4.8,1.,4.8,1.,4.8
1979-07-03 18:28:24.750 ,5,0,0.,4.8,0.,4.8,1.,4.8,1.,4.8
1979-07-03 18:28:29.550 ,5,0,0.,4.8,2.,4.8,1.,4.8,0.,4.8
1979-07-03 18:28:34.350 ,5,0,0.,4.8,2.,4.8,0.,4.8,0.,4.8
1979-07-03 18:28:39.150 ,5,0,0.,4.8,2.,4.8,0.,4.8,1.,4.8
1979-07-03 18:28:43.950 ,5,0,0.,4.8,1.,4.8,0.,4.8,1.,4.8
1979-07-03 18:28:48.750 ,6,0,0.,4.8,5.,4.8,2.,4.8,0.,4.8
1979-07-03 18:28:53.550 ,6,0,0.,4.8,3.,4.8,0.,4.8,0.,4.8
1979-07-03 18:28:58.350 ,6,0,1.,4.8,5.,4.8,0.,4.8,0.,4.8
1979-07-03 18:29:03.150 ,6,0,0.,4.8,2.,4.8,0.,4.8,0.,4.8
1979-07-03 18:29:07.950 ,6,0,0.,4.8,1.,4.8,2.,4.8,1.,4.8
1979-07-03 18:29:12.750 ,6,0,0.,4.8,3.,4.8,0.,4.8,1.,4.8
1979-07-03 18:29:17.550 ,6,0,0.,4.8,1.,4.8,0.,4.8,0.,4.8
1979-07-03 18:29:22.350 ,6,0,0.,4.8,3.,4.8,1.,4.8,1.,4.8
1979-07-03 18:29:27.150 ,6,0,0.,4.8,3.,4.8,0.,4.8,0.,4.8
1979-07-03 18:29:31.950 ,6,0,0.,4.8,4.,4.8,0.,4.8,0.,4.8
1979-07-03 18:29:36.750 ,7,0,0.,4.8,3.,4.8,0.,4.8,0.,4.8
1979-07-03 18:29:41.550 ,7,0,0.,4.8,2.,4.8,0.,4.8,0.,4.8
1979-07-03 18:29:46.350 ,7,0,0.,4.8,0.,4.8,2.,4.8,1.,4.8
1979-07-03 18:29:51.150 ,7,0,0.,4.8,1.,4.8,0.,4.8,0.,4.8
1979-07-03 18:29:55.950 ,7,0,0.,4.8,1.,4.8,2.,4.8,0.,4.8
1979-07-03 18:30:00.750 ,7,0,0.,4.8,0.,4.8,0.,4.8,0.,4.8
1979-07-03 18:30:05.550 ,7,0,0.,4.8,1.,4.8,0.,4.8,0.,4.8
1979-07-03 18:30:10.350 ,7,0,0.,4.8,0.,4.8,0.,4.8,0.,4.8
1979-07-03 18:30:15.150 ,7,0,0.,4.8,1.,4.8,0.,4.8,0.,4.8
1979-07-03 18:30:19.950 ,7,0,0.,4.8,2.,4.8,0.,4.8,0.,4.8
1979-07-03 18:31:12.750 ,0,0,0.,4.8,0.,4.8,0.,4.8,0.,4.8
1979-07-03 18:31:17.550 ,0,0,0.,4.8,1.,4.8,0.,4.8,1.,4.8
1979-07-03 18:31:22.350 ,0,0,0.,4.8,3.,4.8,0.,4.8,0.,4.8
1979-07-03 18:31:27.150 ,0,0,0.,4.8,2.,4.8,2.,4.8,0.,4.8
1979-07-03 18:31:31.950 ,0,0,0.,4.8,3.,4.8,1.,4.8,1.,4.8
1979-07-03 18:31:36.750 ,0,0,0.,4.8,3.,4.8,2.,4.8,0.,4.8
1979-07-03 18:31:41.550 ,0,0,0.,4.8,2.,4.8,0.,4.8,1.,4.8
1979-07-03 18:31:46.350 ,0,0,0.,4.8,1.,4.8,0.,4.8,0.,4.8
1979-07-03 18:31:51.150 ,0,0,0.,4.8,6.,4.8,1.,4.8,0.,4.8
1979-07-03 18:31:55.950 ,0,0,0.,4.8,1.,4.8,0.,4.8,1.,4.8
1979-07-03 18:32:00.750 ,5,0,0.,4.8,2.,4.8,0.,4.8,0.,4.8
1979-07-03 18:32:05.550 ,5,0,0.,4.8,3.,4.8,1.,4.8,1.,4.8
1979-07-03 18:32:10.350 ,5,0,0.,4.8,4.,4.8,1.,4.8,1.,4.8
1979-07-03 18:32:15.150 ,5,0,0.,4.8,6.,4.8,1.,4.8,0.,4.8
1979-07-03 18:32:19.950 ,5,0,0.,4.8,2.,4.8,0.,4.8,0.,4.8
1979-07-03 18:32:24.750 ,5,0,0.,4.8,3.,4.8,0.,4.8,0.,4.8
1979-07-03 18:32:29.550 ,5,0,0.,4.8,1.,4.8,0.,4.8,1.,4.8
1979-07-03 18:32:34.350 ,5,0,0.,4.8,1.,4.8,0.,4.8,1.,4.8
1979-07-03 18:32:39.150 ,5,0,0.,4.8,0.,4.8,1.,4.8,1.,4.8
1979-07-03 18:32:43.950 ,5,0,0.,4.8,2.,4.8,1.,4.8,0.,4.8
1979-07-03 18:32:48.750 ,4,0,0.,4.8,3.,4.8,0.,4.8,0.,4.8
1979-07-03 18:32:53.550 ,4,0,0.,4.8,2.,4.8,0.,4.8,1.,4.8
1979-07-03 18:32:58.350 ,4,0,0.,4.8,1.,4.8,1.,4.8,1.,4.8
1979-07-03 18:33:03.150 ,4,0,0.,4.8,6.,4.8,0.,4.8,0.,4.8
1979-07-03 18:33:07.950 ,4,0,0.,4.8,2.,4.8,0.,4.8,0.,4.8
1979-07-03 18:33:12.750 ,4,0,0.,4.8,9.,4.8,1.,4.8,0.,4.8
1979-07-03 18:33:17.550 ,4,0,0.,4.8,0.,4.8,1.,4.8,3.,4.8
1979-07-03 18:33:22.350 ,4,0,0.,4.8,4.,4.8,1.,4.8,0.,4.8
1979-07-03 18:33:27.150 ,4,0,1.,4.8,2.,4.8,0.,4.8,0.,4.8
1979-07-03 18:33:31.950 ,4,0,0.,4.8,2.,4.8,2.,4.8,2.,4.8
1979-07-03 18:33:36.750 ,3,0,0.,4.8,0.,4.8,1.,4.8,0.,4.8
1979-07-03 18:33:41.550 ,3,0,0.,4.8,4.,4.8,0.,4.8,0.,4.8
1979-07-03 18:33:46.350 ,3,0,0.,4.8,5.,4.8,1.,4.8,0.,4.8
1979-07-03 18:33:51.150 ,3,0,0.,4.8,3.,4.8,2.,4.8,1.,4.8
1979-07-03 18:33:55.950 ,3,0,0.,4.8,2.,4.8,2.,4.8,1.,4.8
1979-07-03 18:34:00.750 ,3,0,0.,4.8,7.,4.8,2.,4.8,0.,4.8
1979-07-03 18:34:05.550 ,3,0,0.,4.8,3.,4.8,1.,4.8,2.,4.8
1979-07-03 18:34:10.350 ,3,0,0.,4.8,12.,4.8,0.,4.8,0.,4.8
1979-07-03 18:34:15.150 ,3,0,0.,4.8,9.,4.8,1.,4.8,1.,4.8
1979-07-03 18:34:19.950 ,3,0,0.,4.8,8.,4.8,0.,4.8,0.,4.8
1979-07-03 18:34:24.750 ,2,0,0.,4.8,6.,4.8,0.,4.8,1.,4.8
1979-07-03 18:34:29.550 ,2,0,0.,4.8,7.,4.8,0.,4.8,1.,4.8
1979-07-03 18:34:34.350 ,2,0,0.,4.8,8.,4.8,2.,4.8,0.,4.8
1979-07-03 18:34:39.150 ,2,0,0.,4.8,10.,4.8,2.,4.8,0.,4.8
1979-07-03 18:34:43.950 ,2,0,0.,4.8,5.,4.8,1.,4.8,1.,4.8
1979-07-03 18:34:48.750 ,2,0,0.,4.8,7.,4.8,1.,4.8,0.,4.8
1979-07-03 18:34:53.550 ,2,0,0.,4.8,7.,4.8,1.,4.8,0.,4.8
1979-07-03 18:34:58.350 ,2,0,0.,4.8,5.,4.8,1.,4.8,1.,4.8
1979-07-03 18:35:03.150 ,2,0,0.,4.8,2.,4.8,1.,4.8,0.,4.8
1979-07-03 18:35:07.950 ,2,0,0.,4.8,5.,4.8,1.,4.8,0.,4.8
1979-07-03 18:35:12.750 ,1,0,0.,4.8,10.,4.8,0.,4.8,0.,4.8
1979-07-03 18:35:17.550 ,1,0,0.,4.8,6.,4.8,0.,4.8,0.,4.8
1979-07-03 18:35:22.350 ,1,0,0.,4.8,5.,4.8,1.,4.8,1.,4.8
1979-07-03 18:35:27.150 ,1,0,0.,4.8,11.,4.8,0.,4.8,0.,4.8
1979-07-03 18:35:31.950 ,1,0,0.,4.8,5.,4.8,1.,4.8,0.,4.8
1979-07-03 18:35:36.750 ,1,0,0.,4.8,9.,4.8,0.,4.8,1.,4.8
1979-07-03 18:35:41.550 ,1,0,0.,4.8,9.,4.8,0.,4.8,1.,4.8
1979-07-03 18:35:46.350 ,1,0,0.,4.8,6.,4.8,0.,4.8,1.,4.8
1979-07-03 18:35:51.150 ,1,0,0.,4.8,5.,4.8,0.,4.8,0.,4.8
1979-07-03 18:35:55.950 ,1,0,0.,4.8,8.,4.8,0.,4.8,1.,4.8
1979-07-03 18:36:00.750 ,0,0,0.,4.8,5.,4.8,1.,4.8,0.,4.8
1979-07-03 18:36:05.550 ,0,0,0.,4.8,8.,4.8,0.,4.8,0.,4.8
1979-07-03 18:36:10.350 ,0,0,0.,4.8,3.,4.8,1.,4.8,0.,4.8
1979-07-03 18:36:15.150 ,0,0,0.,4.8,5.,4.8,1.,4.8,0.,4.8
1979-07-03 18:36:19.950 ,0,0,0.,4.8,4.,4.8,2.,4.8,1.,4.8
1979-07-03 18:36:24.750 ,0,0,0.,4.8,9.,4.8,2.,4.8,0.,4.8
1979-07-03 18:36:29.550 ,0,0,0.,4.8,4.,4.8,1.,4.8,0.,4.8
1979-07-03 18:36:34.350 ,0,0,0.,4.8,5.,4.8,1.,4.8,1.,4.8
1979-07-03 18:36:39.150 ,0,0,0.,4.8,6.,4.8,1.,4.8,0.,4.8
1979-07-03 18:36:43.950 ,0,0,0.,4.8,6.,4.8,0.,4.8,0.,4.8
1979-07-03 18:36:48.750 ,0,0,0.,4.8,6.,4.8,1.,4.8,0.,4.8
1979-07-03 18:36:53.550 ,0,0,0.,4.8,8.,4.8,1.,4.8,2.,4.8
1979-07-03 18:36:58.350 ,0,0,0.,4.8,2.,4.8,0.,4.8,1.,4.8
1979-07-03 18:37:03.150 ,0,0,0.,4.8,4.,4.8,3.,4.8,1.,4.8
1979-07-03 18:37:07.950 ,0,0,0.,4.8,7.,4.8,1.,4.8,0.,4.8
1979-07-03 18:37:12.750 ,0,0,0.,4.8,11.,4.8,1.,4.8,0.,4.8
1979-07-03 18:37:17.550 ,0,0,0.,4.8,4.,4.8,2.,4.8,1.,4.8
1979-07-03 18:37:22.350 ,0,0,0.,4.8,7.,4.8,1.,4.8,1.,4.8
1979-07-03 18:37:27.150 ,0,0,0.,4.8,6.,4.8,1.,4.8,0.,4.8
1979-07-03 18:37:31.950 ,0,0,0.,4.8,6.,4.8,0.,4.8,0.,4.8
1979-07-03 18:37:36.750 ,1,0,0.,4.8,5.,4.8,0.,4.8,0.,4.8
1979-07-03 18:37:41.550 ,1,0,0.,4.8,4.,4.8,1.,4.8,0.,4.8
1979-07-03 18:37:46.350 ,1,0,0.,4.8,7.,4.8,2.,4.8,0.,4.8
1979-07-03 18:37:51.150 ,1,0,0.,4.8,13.,4.8,1.,4.8,2.,4.8
1979-07-03 18:37:55.950 ,1,0,0.,4.8,3.,4.8,1.,4.8,1.,4.8
1979-07-03 18:38:00.750 ,1,0,0.,4.8,7.,4.8,0.,4.8,1.,4.8
1979-07-03 18:38:05.550 ,1,0,0.,4.8,8.,4.8,1.,4.8,0.,4.8
1979-07-03 18:38:10.350 ,1,0,0.,4.8,4.,4.8,2.,4.8,1.,4.8
1979-07-03 18:38:15.150 ,1,0,0.,4.8,8.,4.8,4.,4.8,1.,4.8
1979-07-03 18:38:19.950 ,1,0,0.,4.8,11.,4.8,2.,4.8,2.,4.8
1979-07-03 18:38:24.750 ,2,0,0.,4.8,15.,4.8,1.,4.8,2.,4.8
1979-07-03 18:38:29.550 ,2,0,0.,4.8,8.,4.8,0.,4.8,3.,4.8
1979-07-03 18:38:34.350 ,2,0,0.,4.8,12.,4.8,2.,4.8,0.,4.8
1979-07-03 18:38:39.150 ,2,0,0.,4.8,7.,4.8,1.,4.8,0.,4.8
1979-07-03 18:38:43.950 ,2,0,0.,4.8,7.,4.8,0.,4.8,0.,4.8
1979-07-03 18:38:48.750 ,2,0,0.,4.8,7.,4.8,1.,4.8,0.,4.8
1979-07-03 18:38:53.550 ,2,0,0.,4.8,14.,4.8,0.,4.8,2.,4.8
1979-07-03 18:38:58.350 ,2,0,0.,4.8,4.,4.8,1.,4.8,0.,4.8
1979-07-03 18:39:03.150 ,2,0,0.,4.8,13.,4.8,2.,4.8,2.,4.8
1979-07-03 18:39:07.950 ,2,0,0.,4.8,9.,4.8,1.,4.8,0.,4.8
1979-07-03 18:39:12.750 ,3,0,0.,4.8,4.,4.8,1.,4.8,2.,4.8
1979-07-03 18:39:17.550 ,3,0,0.,4.8,8.,4.8,1.,4.8,0.,4.8
1979-07-03 18:39:22.350 ,3,0,0.,4.8,6.,4.8,3.,4.8,1.,4.8
1979-07-03 18:39:27.150 ,3,0,0.,4.8,3.,4.8,4.,4.8,1.,4.8
1979-07-03 18:39:31.950 ,3,0,0.,4.8,8.,4.8,2.,4.8,0.,4.8
1979-07-03 18:39:36.750 ,3,0,0.,4.8,7.,4.8,0.,4.8,1.,4.8
1979-07-03 18:39:41.550 ,3,0,0.,4.8,5.,4.8,2.,4.8,0.,4.8
1979-07-03 18:39:46.350 ,3,0,0.,4.8,5.,4.8,1.,4.8,0.,4.8
1979-07-03 18:39:51.150 ,3,0,0.,4.8,0.,4.8,0.,4.8,2.,4.8
1979-07-03 18:39:55.950 ,3,0,0.,4.8,9.,4.8,1.,4.8,1.,4.8
1979-07-03 18:40:00.750 ,4,0,0.,4.8,2.,4.8,2.,4.8,0.,4.8
1979-07-03 18:40:05.550 ,4,0,0.,4.8,5.,4.8,3.,4.8,0.,4.8
1979-07-03 18:40:10.350 ,4,0,1.,4.8,2.,4.8,0.,4.8,1.,4.8